This is the latest recevied weather packets stored in our database for station/object KC3ROS. If no packets are shown the sender has not sent any weather packets the latest 10 day(s).
| Time | Temp. | Humidity | Pressure | Rain* | Wind** | Luminosity | Snow |
|---|---|---|---|---|---|---|---|
| 1777758171 | 5° C | 76% | 1014.3 hPa | 0 mm | - | 69 W/m² | - |
| 1777757868 | 5° C | 77% | 1014.4 hPa | 0 mm | - | 68 W/m² | - |
| 1777757566 | 5.56° C | 76% | 1014.3 hPa | 0 mm | - | 91 W/m² | - |
| 1777757264 | 5.56° C | 73% | 1014.4 hPa | 0 mm | - | 114 W/m² | - |
| 1777756963 | 5.56° C | 75% | 1014.3 hPa | 0 mm | - | 131 W/m² | - |
| 1777756658 | 5.56° C | 73% | 1014.2 hPa | 0 mm | - | 123 W/m² | - |
| 1777756355 | 6.11° C | 76% | 1014.2 hPa | 0 mm | - | 176 W/m² | - |
| 1777756052 | 5.56° C | 75% | 1014 hPa | 0 mm | - | 275 W/m² | - |
| 1777755749 | 5.56° C | 78% | 1014 hPa | 0 mm | - | 239 W/m² | - |
| 1777755447 | 5° C | 76% | 1013.8 hPa | 0 mm | - | 152 W/m² | - |
| 1777755142 | 5.56° C | 76% | 1014.2 hPa | 0 mm | - | 114 W/m² | - |
| 1777754840 | 5.56° C | 78% | 1013.9 hPa | 0 mm | - | 180 W/m² | - |
| 1777754537 | 5.56° C | 77% | 1014.2 hPa | 0 mm | - | 207 W/m² | - |
| 1777754235 | 5.56° C | 78% | 1014 hPa | 0 mm | - | 273 W/m² | - |
| 1777753932 | 5° C | 79% | 1014 hPa | 0 mm | - | 228 W/m² | - |
| 1777753626 | 5° C | 81% | 1013.9 hPa | 0 mm | - | 227 W/m² | - |
| 1777753325 | 4.44° C | 82% | 1014.2 hPa | 0 mm | - | 209 W/m² | - |
| 1777753022 | 5° C | 83% | 1014.3 hPa | 0 mm | - | 127 W/m² | - |
| 1777752719 | 4.44° C | 82% | 1014.3 hPa | 0 mm | - | 111 W/m² | - |
| 1777752414 | 5° C | 83% | 1014 hPa | 0 mm | - | 112 W/m² | - |
| 1777752111 | 5° C | 82% | 1014 hPa | 0 mm | - | 114 W/m² | - |
| 1777751810 | 4.44° C | 82% | 1014.3 hPa | 0 mm | - | 115 W/m² | - |
| 1777751505 | 4.44° C | 81% | 1014.3 hPa | 0 mm | - | 106 W/m² | - |
| 1777751202 | 5° C | 80% | 1014 hPa | 0 mm | - | 74 W/m² | - |
| 1777750899 | 5° C | 80% | 1014.3 hPa | 0 mm | - | 51 W/m² | - |
* Rain latest hour (hover to see other rain measurements)
** Current wind speed in m/s (hover to see current wind gust speed)